PAS 1R

operational
NORAD ID: 26608 Int'l Des: 2000-072 Owner: PAN Country: US
HEOCIRCULAR

About PAS 1R

Description loading...

Live Position

Loading 3D Globe...

Upcoming Passes

Altitude History

Altitude vs Time

uPlot chart will show altitude changes over time

Two-Line Element Set

1 26608U 00072A 26048.32450397 -.00000141 00000-0 00000+0 0 9990
2 26608 7.7786 66.0951 0010596 264.8936 299.3037 0.98970576 40047
Epoch: Feb 17, 2026 • Age: 23 hours

Current Status

Altitude 36146.0 km
Velocity 3.06 km/s
Sub-Earth Point -0.82°S, 1.5°E
Launch Date Nov 16, 2000
Age 25.2 years
Type other

Technical Details

Classification Payload
Mass 4793.00 kg
Dry Mass 3000.00 kg
Total Mass 4793.00 kg
Length 6.20 m
Diameter 3.50 m
Span 41.00 m
Shape Box + 2 Pan
Manufacturer BOES
Bus Type BSS-702HP
Phase Status Unknown Active Status
Owner/State PAN/US

Large Constellations

Loading constellations...